OBJECT F, 61232

Orbit data source: Space-Track

You're viewing an Uncataloged Satellite

Recently launched and/or uncataloged satellites may have evolving metadata. Metadata may include but not limited to: Owner, Maufacturer, Bus, Motor, and Mission.

OBJECT F, 61232 is a Chinese satellite in SSO that was launched on Tue, 24 Sep 2024 UTC via a JIELONG-3 launch vehicle from the Yellow Sea Launch Area, China (YSLA). Unknown objects in Earth's orbit typically refer to objects detected orbiting the Earth but have not yet been identified or cataloged. These objects could be anything from previously untracked satellites, spent rocket stages, debris from satellite collisions, or even natural meteoroids temporarily captured by Earth's gravity.

Loading next visibility...
Identifier
61232, 2024-173F
Orbit
SSO
Country
Flag of CNCN / PRC
Related business
None
Manufacturer
Unknown
Mission
Operational Commercial Technology
Bus & Motor
Unknown
Mass
Unknown
Launch date (UTC)
2024-09-24 (1 year ago)
Launch vehicle
JIELONG-3
Launch site
Yellow Sea Launch Area, China (YSLA)
Object type
Unknown
Shape & HBR
Box + 3 Pan, 0.1 m
Radar Cross Section
0.135 m², Medium (>0.1 m² and < 1m²)

Expand to show TLE details & history
Last TLE update: 4 hours ago

TLE from 4 hours ago
0 OBJECT F
1 61232U 24173F   25291.98869824  .00034995  00000-0  57658-3 0  9998
2 61232  97.3701  14.2658 0006089 316.7625  43.3149 15.52225417 59947
Epoch: 2025-10-18T23:43Z
TLE epoch observation values (Epoch: 2025-10-18T23:43:43.527Z)
Latitude
-0.00006°
Longitude
-9.37737°
Altitude
410.358 km
Speed
7.666 km/s
True Right ascension
00h 57m 03s
True Declination
0° 00' 00"
Sunlit
Object was in full shadow at epoch
Visualization orbit readout
Latitude
Unknown
Longitude
Unknown
Altitude
Unknown
Speed
Unknown
Apparent Right ascension
Unknown
Apparent Declination
Unknown
Sunlit
N/A
Visualization observer readout
Local Sidereal Time
22:25:40
Azimuth
Unknown
Elevation
Unknown
Doppler factor
Unknown
Orbital elements
Apogee altitude
411.283 km
Perigee altitude
403.02 km
Semi-major axis
6,785.288 km
Eccentricity
0.00061
Inclination
97.3701°
RAAN
14.2658°
Arg. of periapsis
316.7625°
True anomaly
43.36279°
Mean anomaly
43.3149°
Eccentric anomaly
43.33884°
Mean motion
3.88321 °/min
Orbital period
92.71 mins
BSTAR
0.00057658
Loading maneuver chart data...
Computing Atmospheric mass density...
Loading historical data...
Loading historical data...
Loading historical data...
Loading historical data...
Loading historical data...
Loading historical data...
Loading historical data...

Documentation

Showing up to 5 results
|